Tracking 27122 objects as of 24-Mar-2023
HD Live streaming from Space Station
objects crossing your sky now

STARLINK-2436

Track STARLINK-2436 now!
10-day predictions
STARLINK-2436 is classified as:


NORAD ID: 48101
Int'l Code: 2021-027K
Perigee: 553.3 km
Apogee: 555.4 km
Inclination: 53.1 °
Period: 95.6 minutes
Semi major axis: 6925 km
RCS: Unknown
Launch date: April 7, 2021
Source: United States (US)
Launch site: AIR FORCE EASTERN TEST RANGE (AFETR)
Your satellite tracking list
Your tracking list is empty




NASA's NSSDC Master Catalog

Two Line Element Set (TLE):
1 48101U 21027K   23083.11720583  .00054982  00000-0  36803-2 0  9999
2 48101  53.0540 336.9879 0001532 107.0418 253.0739 15.06411088109148
Source of the keplerian elements: AFSPC